Skip Page Navigation
NASA JPL Caltech
NASA Logo - Jet Propulsion Laboratory + View the NASA Portal
+ Center for Near-Earth Object Studies
JPL Home Earth Solar System Stars & Galaxies Technology
JPL Solar System Dynamics
BODIES ORBITS EPHEMERIDES TOOLS PHYSICAL DATA DISCOVERY FAQ SITE MAP
JPL Small-Body Database Browser
Search: [ help ]  
106172 (2000 UF)
Classification: Main-belt Asteroid          SPK-ID: 2106172
Ephemeris | Orbit Diagram | Orbital Elements | Mission Design | Physical Parameters | Discovery Circumstances | Close-Approach Data ]

[ hide orbit diagram ]

For accurate long-term ephemerides, please instead use our Horizons system.This orbit viewer was implemented using two-body methods, and hence should not be used for determining accurate long-term trajectories (over several years or decades) or planetary encounter circumstances.


Orbital Elements at Epoch 2459396.5 (2021-Jul-01.0) TDB
Reference: JPL 24 (heliocentric ecliptic J2000)
 Element Value Uncertainty (1-sigma)   Units 
e .09881992589904155 3.595e-08  
a 3.10802352659081 2.1635e-08 au
q 2.800888872000629 1.1784e-07 au
i 9.037153163531892 4.3358e-06 deg
node 249.3541234337522 2.5469e-05 deg
peri 45.8372079431042 3.4035e-05 deg
M .9335097196119457 2.205e-05 deg
tp 2459391.310312389070
(2021-Jun-25.81031239)
0.00012258 TDB
period 2001.358422611042
5.48
2.0897e-05
5.721e-08
d
yr
n .179877824947683 1.8782e-09 deg/d
Q 3.415158181180992 2.3773e-08 au
  Orbit Determination Parameters
   # obs. used (total)      801  
   data-arc span      8030 days (21.98 yr)  
   first obs. used      1999-07-13  
   last obs. used      2021-07-07  
   planetary ephem.      DE441  
   SB-pert. ephem.      SB441-N16  
   condition code      0  
   norm. resid. RMS      .50911  
   source      ORB  
   producer      Otto Matic  
   solution date      2021-Jul-09 10:59:17  

Additional Information
 Earth MOID = 1.79361 au 
 Jupiter MOID = 1.74725 au 
 T_jup = 3.193 
[ show covariance matrix ]

Ephemeris | Orbit Diagram | Orbital Elements | Mission Design | Physical Parameters | Discovery Circumstances | Close-Approach Data ]

Physical Parameter Table
Parameter Symbol Value Units Sigma Reference Notes
absolute magnitude H 14.41   n/a MPCxxxxx  
diameter diameter 5.394 km 0.241 urn:nasa:pds:neowise_diameters_albedos::2.0[mainbelt] (http://adsabs.harvard.edu/abs/2011ApJ...741...68M)  
geometric albedo albedo 0.116   0.038 urn:nasa:pds:neowise_diameters_albedos::2.0[mainbelt] (http://adsabs.harvard.edu/abs/2011ApJ...741...68M)  

106172 (2000 UF)          Discovered 2000-Oct-19 by Sarounova, L. at Ondrejov
Reference: 20051019/Numbers.arcLast Updated: 2005-10-26

[ hide close-approach data ]
Close-Approach Data   ...sorted by Date/Time (TDB)
Date/Time (TDB) Time Uncertainty
(days_HH:MM)
Body Nominal Distance (au) Minimum Distance (au) Maximum Distance (au) V-relative (km/s) V-infinity (km/s) JD (TDB) Time Uncertainty (minutes) Semi-major axis (km) Semi-minor axis (km) range-LOV angle (deg) N-sigma BP Orbit Ref. Reference Modified
1930-Sep-07 14:50 00:03 Jupiter 1.80062702729763 1.80062610401291 1.80062795058522 3.37023972514455 3.2276473491781 2426227.118094191 2.76077478030377 151.7212273041 30.4414808926506 75.3264912561355 3541494.44011712 T 24 CATAB v2.0g-lin.ifort 2021-Jul-09 10:59:19 2021-Jul-09 10:59
1940-Oct-18 20:50 00:02 Jupiter 1.84244116200866 1.84244022543829 1.84244209858333 3.53892582650077 3.40654358892542 2429921.367917123 2.48928683065943 166.24862823442 16.8327436627081 -75.2808579331809 3292998.28347265 T 24 CATAB v2.0g-lin.ifort 2021-Jul-09 10:59:19 2021-Jul-09 10:59
2001-Dec-21 21:52 < 00:01 Jupiter 1.82211793029249 1.82211751519844 1.82211834538655 3.3199580254119 3.17685524162772 2452265.411243536 0.523545739362032 84.9636817040452 19.298210821367 -89.7069224935335 3789253.59542967 T 24 CATAB v2.0g-lin.ifort 2021-Jul-09 10:59:19 2021-Jul-09 10:59
2012-Feb-04 11:19 < 00:01 Jupiter 1.82650353851974 1.82650311250605 1.82650396453342 3.59288355187507 3.46140614200906 2455961.971577380 0.249912170177421 40.7219359205265 16.7074591859447 -76.0378970340527 3380786.28791619 T 24 CATAB v2.0g-lin.ifort 2021-Jul-09 10:59:19 2021-Jul-09 10:59
2073-Apr-07 19:45 00:02 Jupiter 1.84641649369685 1.84641573158102 1.84641725581289 3.25886509108233 3.11491966005493 2478305.322871319 1.84498397651026 95.1869893808682 37.0655437038983 81.4505858434538 3776621.71521668 T 24 CATAB v2.0g-lin.ifort 2021-Jul-09 10:59:19 2021-Jul-09 10:59
2083-May-22 08:07 00:02 Jupiter 1.81523094800836 1.81523014072157 1.81523175529928 3.64021087474115 3.50968600059703 2482001.838116162 2.19706054266179 162.982928448924 16.2368424012817 -77.6027063915424 3353541.65810722 T 24 CATAB v2.0g-lin.ifort 2021-Jul-09 10:59:19 2021-Jul-09 10:59
2144-Jul-25 07:35 00:04 Jupiter 1.87123403619468 1.87123245121755 1.87123562117223 3.18768490887974 3.04237178430329 2504345.815751558 4.17229235038224 105.504711074625 74.1856396365865 54.0781323101093 3689756.59332966 T 24 CATAB v2.0g-lin.ifort 2021-Jul-09 10:59:19 2021-Jul-09 10:59
2154-Sep-07 09:04 00:04 Jupiter 1.80411932716178 1.80411804143603 1.80412061290896 3.67289532763468 3.54276344831886 2508041.877971940 4.45785477456046 336.422588072751 16.0084455020547 -79.8966255489629 3372819.43928379 T 24 CATAB v2.0g-lin.ifort 2021-Jul-09 10:59:19 2021-Jul-09 10:59

Alternate Designations
 2000 UF = 2003 FL51 
Ephemeris | Orbit Diagram | Orbital Elements | Mission Design | Physical Parameters | Discovery Circumstances | Close-Approach Data ]
ABOUT SSD CREDITS/AWARDS PRIVACY/COPYRIGHT GLOSSARY LINKS
FirstGov 2021-Aug-03 20:10 UT
(server date/time)  
NASA Home Page
Site Manager:   Ryan S. Park
Webmaster  Alan B. Chamberlin